[Iaude] MPEC O93: 2014 OT111 [a=2.21,e=0.55,i=8.4,H=21.74]
    mpec at cfa.harvard.edu 
    mpec at cfa.harvard.edu
       
    Mon Jul 29 13:28:23 EDT 2024
    
    
  
M.P.E.C. 2024-O93                                 Issued 2024 July 29, 17:26 UT
     The Minor Planet Electronic Circulars contain information on unusual
         minor planets, routine data on comets and natural satellites,
         and occasional editorial announcements.  They are published
    on behalf of Division F of the International Astronomical Union by the
          Minor Planet Center, Smithsonian Astrophysical Observatory,
                          Cambridge, MA 02138, U.S.A.
			  
             Prepared using the Tamkin Foundation Computer Network
                              MPC at CFA.HARVARD.EDU
            URL https://www.minorplanetcenter.net/    ISSN 1523-6714
                                   2014 OT111                                   
                           Revision to MPEC 2014-O59                            
Additional Observations:
     K14OB1T 0C2024 06 10.59109200 32 00.526+02 24 36.77         23.53GVEO093T14
     K14OB1T 0C2024 06 12.60591400 36 39.023+03 23 20.69         23.36GVEO093T14
     K14OB1T 0C2024 06 12.60851100 36 39.369+03 23 25.21         23.37GVEO093T14
     K14OB1T 0C2024 06 12.61110800 36 39.714+03 23 29.72         23.32GVEO093T14
Observer details:
T14 Canada-France-Hawaii Telescope, Maunakea.  Observer A. Acohido.  Measurer
    D. J. Tholen.  3.6-m f/4.1 reflector + 1024 x 2306 pixels Megacam.
First and last observations above in comparison with prediction:
Residuals in seconds of arc (or two decimals in degrees), reference and Delta-T
240610 T14 0.08+ 0.15+    240612 T14 0.08+ 0.14+    E2024-B79   +0.42 days
Orbital elements:
2014 OT111                                          PHA, Earth MOID = 0.0338 AU
Epoch 2024 Oct. 17.0 TT = JDT 2460600.5                 Veres                   
M  47.17426              (2000.0)            P               Q                  
n   0.29920656     Peri.  320.36714     -0.03682552     +0.99260333             
a   2.2138863      Node   307.21349     -0.87605378     -0.08776241             
e   0.5533668      Incl.    8.35230     -0.48080522     +0.08388315             
P   3.29           H   21.74          G   0.15           U   0                  
Residuals in seconds of arc
140714 C51  0.1+  0.0     140729 J95  0.0   0.0     140806 H21  0.1+  0.1-
140727 F51  0.2+  0.2+    140729 J95  0.1+  0.2-    140806 H21  0.3+  0.1+
140727 F51  0.1+  0.0     140729 850  0.6-  0.2-    140806 H45  0.4+  0.2-
140727 F51  0.1+  0.1-    140729 850  1.0+  0.4-    140806 H45  0.0   0.5-
140727 F51  0.1+  0.1+    140729 850  1.0+  0.4-    140806 H45  0.1-  0.3-
140727 194  0.2-  0.1+    140729 850  1.2+  0.6-    140806 H45  0.2-  0.1-
140727 194  0.1+  0.4-    140729 850  0.9+  1.3-    140806 H45  0.0   0.2-
140727 194  0.0   0.0     140729 E23  0.1-  0.2-    140806 H45  0.0   0.3-
140727 958  0.4+  0.9+    140729 E23  0.0   0.3-    140806 H45  0.1+  0.3-
140727 958  0.2-  1.0+    140729 E23  0.2-  0.1-    140806 H45  0.1-  0.1-
140727 958  0.1-  1.0+    140731 204  0.1-  0.0     140814 H21  0.2-  0.3-
140727 958  0.3-  0.9+    140731 204  0.0   0.1+    140814 H21  0.2+  0.1-
140728 I39  0.1-  0.0     140731 204  0.0   0.1+    140814 H21  0.5+  0.3-
140728 I39  0.1-  0.2+    140731 204  0.0   0.1+    140814 291  0.2+  0.1-
140728 I39  0.1+  0.2+    140731 204  0.0   0.0     140814 291  0.2-  0.1+
140728 Y00  0.1+  0.6-    140731 H21  0.1+  0.0     140814 291  0.4+  0.5-
140728 Y00  0.2+  0.2-    140731 H21  0.0   0.1-    140818 F51  0.0   0.0
140728 Y00  0.2-  0.3+    140731 H21  0.0   0.1+    140818 F51  0.1-  0.1-
140728 G40  0.2-  0.2-    140731 H21  0.0   0.1-    140818 F51  0.0   0.1-
140728 G40  0.1-  0.0     140731 H21  0.1+  0.1+    140818 F51  0.1-  0.0
140728 G40  0.1-  0.1-    140801 Y00  0.6+  0.0     140819 F51  0.1-  0.1+
140728 G40  0.3-  0.3-    140801 Y00  0.4+  0.1+    140819 F51  0.1-  0.0
140728 G40  0.0   0.2+    140801 Y00  0.1+  0.1+    140819 F51  0.2-  0.0
140728 G40  0.0   0.1+    140801 H21  0.0   0.1+    140824 H45  0.2-  0.1-
140728 H36  0.0   0.2+    140801 H21  0.2-  0.3+    140824 H45  0.4+  0.0
140728 H36  0.0   0.2+    140801 H21  0.1+  0.1+    140824 H45  0.4+  0.2-
140728 H36  0.0   0.2+    140801 H21  0.3+  0.1+    140824 H45  0.3+  0.1-
140728 H36  0.0   0.1+    140801 H21  0.2+  0.1+    140824 H45  0.4+  0.2-
140728 H36  0.1+  0.1+    140801 H21  0.0   0.1-    140824 H45  0.3+  0.4-
140728 807  0.0   0.3-    140803 H45  0.3-  0.2+    140901 448  0.8+  0.4-
140728 807  0.1+  0.1-    140803 H45  0.1-  0.2-    140901 448  0.0   0.0
140728 807  0.0   0.0     140803 H45  0.0   0.1+    140901 448  0.3+  0.1-
140728 807  0.1+  0.1-    140803 H45  0.1+  0.4-    140916 568  0.0   0.1+
140728 807  0.0   0.2-    140803 H45  0.1-  0.1-    140916 568  0.0   0.0
140728 H21  0.2+  0.1-    140803 H45  0.3-  0.1-    140923 291  0.1-  0.1-
140728 H21  0.1+  0.1-    140803 H45  0.2-  0.2-    140923 291  0.2+  0.1+
140728 H21  0.0   0.0     140803 H45  0.1+  0.1-    140926 H21  0.3-  0.6+
140728 H21  0.1-  0.1-    140803 203  0.0   0.0     140926 H21  0.4-  0.9+
140728 H21  0.1+  0.1-    140804 203  0.2+  0.0     140926 H21  0.4-  1.0+
140728 900  0.1-  0.1-    140804 H21  0.0   0.2+    140928 H21  0.1-  0.0
140728 900  0.1-  0.1+    140804 H21  0.1-  0.1+    140928 H21  0.1+  0.4+
140728 900  0.0   0.1+    140804 H21  0.0   0.0     140928 H21  0.2+  0.0
140728 900  0.0   0.0     140804 J75  0.3+  0.1-    140929 H21  0.0   0.2-
140728 300  0.3+  0.3-    140804 J75  0.1+  0.1+    140929 H21  0.1+  0.2+
140728 300  0.1+  0.2-    140804 J75  0.1-  0.2-    240610 T14  0.1-  0.1-
140728 300  0.4+  0.3-    140805 291  0.0   0.1+    240612 T14  0.0   0.0
140728 300  0.4+  0.5-    140805 291  0.0   0.0     240612 T14  0.0   0.0
140728 300  0.1+  0.4-    140805 291  0.0   0.1+    240612 T14  0.0   0.1+
140728 300  0.2+  0.5-    140806 H21  0.0   0.0
140729 J95  0.1+  0.1-    140806 H21  0.1+  0.0
Ephemeris:
2014 OT111               a,e,i = 2.21, 0.55, 8                   q = 0.9888
Date    TT    R. A. (2000) Decl.     Delta      r    Elong.  Phase     V
2024 06 29    01 09 55.6 +10 27 42   0.8151  1.1552    77.3    59.2    23.7
...
2024 07 14    01 33 15.7 +15 41 20   0.8413  1.2547    84.4    53.7    23.8
...
2024 07 22    01 42 35.6 +18 02 53   0.8471  1.3121    89.1    50.7    23.9
...
2024 07 28    01 48 00.0 +19 38 12   0.8482  1.3565    93.0    48.4    23.9
2024 07 29    01 48 45.5 +19 53 11   0.8481  1.3639    93.7    48.0    23.9
2024 07 30    01 49 28.5 +20 07 55   0.8480  1.3714    94.4    47.6    23.9
...
2024 08 05    01 52 50.2 +21 30 51   0.8459  1.4167    98.8    45.0    23.9
...
2024 08 13    01 54 40.0 +23 06 17   0.8407  1.4778   105.3    41.4    23.8
...
2024 08 28    01 49 14.9 +25 12 49   0.8300  1.5929   119.6    33.5    23.7
A. U. Tomatic                (C) Copyright 2024 MPC           M.P.E.C. 2024-O93
    
    
More information about the Iaude
mailing list